Temperature
16 16 16 16 16 16 16 16 16 16 16 16 16 15 15 15 15 15 15 15 15 15 15 15 15 15 15 15 15 15 15 15 15 15 15 15 15 15 15 15 15 15 15
16 16 16 16 16 16 16 16 16 16 16 16 15 15 15 15 15 15 15 15 15 15 15 15 15 15 15 15 15 15 15 15 15 15 15 15 15 15 15 15 15 15 15
16 16 16 16 16 16 15 15 15 15 15 15 15 15 15 15 15 15 15 15 15 15 15 15 15 15 15 15 15 15 15 15 15 15 14 14 14 14 14 14 14 14 14
16 16 16 16 15 15 15 15 15 15 15 15 15 15 15 15 15 14 14 14 14 14 14 14 14 14 14 14 14 14 14 14 14 14 14 14 14 14 14 14 14 14 14
16 16 15 15 15 15 15 15 15 15 15 15 15 15 15 14 14 14 14 14 14 14 14 14 14 14 14 14 14 14 14 14 14 14 14 14 14 14 14 14 14 14 14
16 15 15 15 15 15 15 15 15 14 14 14 14 14 14 14 14 14 14 14 14 13 13 13 13 13 13 13 13 14 14 14 14 14 14 14 14 14 14 14 13 13 13
15 15 15 15 15 15 15 14 14 14 14 14 14 14 14 14 14 14 14 14 13 13 13 13 13 13 13 13 13 13 13 13 13 13 13 13 13 13 13 13 13 13 13
15 15 15 15 15 15 14 14 14 14 14 14 14 14 14 14 14 14 14 13 13 13 13 13 13 13 13 13 13 13 13 13 13 13 13 13 13 13 13 13 13 13 13
15 15 15 15 15 14 14 14 14 14 14 14 14 14 14 13 13 13 13 13 13 13 13 13 13 12 12 13 13 13 13 13 13 13 13 13 13 13 13 13 13 13 13
15 15 15 14 14 14 14 14 14 14 14 14 13 13 13 13 13 13 13 13 13 13 13 12 12 12 12 12 13 13 13 13 13 13 13 13 12 12 12 12 12 12 12
15 15 14 14 14 14 14 14 14 14 14 13 13 13 13 13 13 13 13 13 13 13 12 12 12 12 12 12 12 12 12 12 12 12 12 12 12 12 12 12 12 12 12
15 14 14 14 14 14 14 14 14 14 13 13 13 13 13 13 13 13 13 13 13 12 12 12 12 12 12 12 12 12 12 12 12 12 12 12 12 12 12 12 12 12 12
14 14 14 14 14 14 14 14 13 13 13 13 13 13 13 13 13 13 13 12 12 12 12 12 12 12 12 12 12 12 12 12 12 12 12 12 12 12 12 12 12 12 12
14 14 14 14 14 14 13 13 13 13 13 13 13 13 13 12 12 12 12 12 12 12 12 12 11 11 11 11 11 11 11 11 11 11 11 12 12 12 12 12 12 12 11
14 14 14 14 14 13 13 13 13 13 13 13 13 13 13 12 12 12 12 12 12 12 11 12 11 11 11 11 11 11 11 11 11 11 11 11 11 11 12 12 11 11 11
14 14 14 13 13 13 13 13 13 13 13 12 12 12 12 12 12 12 12 12 12 12 11 11 11 11 11 11 11 11 11 11 11 11 11 11 11 11 11 11 11 11 11
14 14 14 13 13 13 13 13 13 13 12 12 12 12 12 12 12 12 12 11 11 11 11 11 11 11 11 11 11 11 11 11 11 11 11 11 11 11 11 11 11 11 11
14 14 13 13 13 13 13 13 13 12 12 12 12 12 12 12 12 11 11 11 11 11 11 11 11 11 11 10 10 10 10 10 11 11 11 11 11 11 11 11 11 11 11
13 13 13 13 13 13 13 13 12 12 12 12 12 12 12 11 11 11 11 11 11 11 11 11 10 10 10 10 10 10 10 10 10 10 10 10 10 11 11 11 11 11 11
13 13 13 13 13 13 12 12 12 12 12 12 12 12 11 11 11 11 11 11 11 11 10 10 10 10 10 10 10 10 10 10 10 10 10 10 10 10 10 10 10 10 10
13 13 13 12 12 12 12 12 12 12 12 12 12 11 11 11 11 11 11 11 10 10 10 10 10 10 10 10 10 10 10 10 10 10 10 10 10 10 10 10 10 10 10
12 12 12 12 12 12 12 12 12 12 11 11 11 11 11 11 11 11 11 11 10 10 10 10 9 9 9 10 10 10 9 9 9 9 9 9 9 10 10 10 10 10 10
12 12 11 12 12 11 11 11 11 11 11 11 11 11 11 11 10 10 10 10 10 10 10 10 9 9 9 9 9 9 9 9 9 9 9 9 9 9 9 9 9 9 9
11 11 11 11 11 11 11 11 11 11 11 10 10 10 10 10 10 10 10 10 10 10 10 9 9 9 9 9 9 9 9 9 9 9 9 9 9 9 9 9 9 9 9
11 11 11 11 11 11 11 11 10 10 10 10 10 10 10 10 10 10 10 10 9 9 9 9 9 9 9 9 9 9 9 9 8 8 8 8 8 9 9 9 9 9 9
11 11 10 10 10 10 10 10 10 10 10 10 10 10 10 9 9 9 9 9 9 9 9 9 9 9 8 8 8 8 8 8 8 8 8 8 8 8 8 8 8 8 8
Wind_Speed
2 2 2 3 3 3 3 2 3 4 4 6 7 7 6 7 8 9 9 11 10 10 10 10 10 9 9 8 7 7 7 7 6 7 7 7 7 7 6 6 6 6 6
2 2 3 3 2 3 2 3 4 4 4 4 5 6 6 6 8 8 9 9 10 11 11 10 10 9 8 7 6 6 6 6 7 7 7 8 8 7 7 6 6 6 6
4 3 3 2 2 3 4 4 5 4 3 4 5 5 5 5 5 7 8 7 8 9 10 9 9 9 8 7 6 6 6 7 7 6 7 7 7 7 7 7 7 7 7
5 3 2 2 3 4 3 3 3 3 4 4 3 3 3 3 4 5 6 7 7 7 8 9 9 8 8 8 7 7 6 6 6 6 6 7 7 7 7 7 7 7 6
5 4 2 2 4 3 2 3 3 3 3 3 2 2 2 2 2 4 4 6 7 8 8 8 8 8 8 8 8 7 6 6 6 6 6 6 6 6 6 6 6 5 5
6 4 2 3 4 3 3 3 4 3 2 2 2 3 2 2 3 3 4 5 5 6 6 7 7 6 7 7 6 6 6 6 6 6 6 6 6 6 6 6 5 5 5
5 4 3 3 3 3 3 3 3 3 2 2 2 2 1 2 3 2 3 3 4 5 5 5 5 6 5 5 5 5 5 5 6 6 6 6 5 5 5 5 5 5 5
4 3 3 3 3 3 3 3 3 2 1 2 1 1 1 2 2 2 2 2 2 3 3 3 5 6 6 6 5 4 4 4 4 4 5 5 5 5 5 5 5 5 5
3 3 3 3 3 3 3 2 2 3 1 1 2 2 1 0 1 1 1 2 2 2 1 3 3 5 6 6 5 5 4 3 3 3 3 4 4 5 5 4 4 4 4
3 3 2 2 2 3 3 2 3 2 2 1 1 1 1 1 1 1 2 1 1 1 0 2 3 4 6 6 6 5 4 4 3 2 3 3 4 4 4 3 3 3 3
2 2 2 2 2 2 3 2 2 2 1 1 0 1 1 1 1 1 0 1 1 0 0 1 2 3 5 6 6 5 5 4 4 3 3 3 3 3 3 3 2 2 2
2 2 3 2 2 2 2 2 2 2 1 1 0 0 1 0 0 0 1 1 1 1 0 1 1 2 4 6 5 5 5 4 4 3 3 3 2 2 2 2 2 2 2
2 3 2 2 2 2 2 2 2 2 2 1 1 0 0 1 0 0 1 0 0 1 0 0 1 2 4 5 5 5 4 3 3 3 2 2 1 1 1 2 2 2 2
2 3 3 2 2 2 1 1 0 1 1 1 1 1 1 0 0 0 1 1 0 1 0 1 0 2 4 5 5 6 4 3 4 3 2 1 1 0 1 1 2 2 2
2 3 3 3 3 3 2 2 1 0 1 1 1 1 1 1 0 0 1 1 2 0 1 1 0 1 3 3 4 6 4 4 5 4 3 2 2 1 0 1 1 1 2
3 3 3 3 3 3 3 2 2 1 1 1 1 1 0 0 1 0 0 0 1 1 1 1 1 1 2 2 4 5 5 5 6 6 4 4 3 2 1 1 1 1 1
3 3 4 4 4 4 3 3 3 2 2 1 1 1 0 1 1 0 0 0 0 1 1 1 1 1 1 1 2 2 4 5 6 7 6 5 4 3 2 2 1 1 1
2 3 3 2 3 3 3 4 3 3 2 2 1 1 1 1 1 0 0 1 1 1 1 1 1 0 1 2 2 2 2 4 5 7 8 7 5 4 4 3 3 2 1
2 2 3 3 2 2 3 3 3 3 3 2 2 2 2 2 1 0 0 0 0 0 1 1 1 1 1 1 1 1 2 2 4 5 7 8 7 6 5 4 4 3 3
2 1 2 2 2 2 2 2 2 2 2 2 1 1 1 2 2 2 1 1 1 1 1 1 1 1 1 1 1 2 1 1 2 3 4 5 7 7 7 6 6 5 4
1 1 1 1 2 2 2 3 2 1 1 1 1 1 1 2 2 1 1 1 1 1 1 1 1 1 1 1 2 2 2 1 2 2 1 2 4 4 5 7 7 7 5
1 2 1 1 1 1 2 3 2 1 1 1 1 1 2 2 2 2 2 1 1 2 2 2 2 2 2 2 2 2 1 1 2 1 1 2 2 2 4 5 6 7 7
2 2 2 2 1 1 2 1 1 1 1 1 1 1 1 1 2 2 2 2 2 3 4 3 2 3 2 2 1 2 2 2 3 2 1 2 1 2 3 5 7 8 8
2 3 2 3 2 2 2 1 1 2 2 2 2 1 1 1 1 1 1 1 2 2 3 3 4 4 3 2 2 2 3 2 1 1 2 2 2 2 3 4 8 8 9
2 3 3 3 3 2 3 2 1 1 2 3 2 1 1 1 1 1 1 1 2 2 2 3 4 4 4 3 2 0 1 1 1 1 1 1 2 2 2 2 5 7 7
2 3 2 3 3 3 3 3 2 1 1 2 1 1 0 0 0 1 2 2 3 3 3 3 3 4 4 4 4 3 3 2 1 1 1 1 1 0 2 2 2 4 5
Wind_Direction
78 87 83 72 80 76 67 48 51 57 54 56 63 70 70 81 90 91 87 84 84 86 86 86 83 82 82 81 80 81 84 88 92 91 88 89 89 94 94 86 82 79 78
72 79 78 66 65 79 80 82 66 53 56 62 54 57 61 75 89 98 100 91 87 86 84 82 81 80 80 80 80 81 86 86 89 91 86 85 86 86 89 85 85 81 76
75 69 76 67 71 70 61 66 70 62 60 64 63 56 53 60 78 95 103 105 97 88 85 84 80 77 75 76 78 80 85 89 90 89 88 89 89 87 83 84 81 79 75
79 72 70 62 68 67 59 65 68 61 57 57 58 63 63 56 54 82 100 104 101 96 93 89 82 77 75 72 71 73 79 86 92 90 87 86 87 88 86 88 83 80 78
79 80 64 58 69 65 55 58 58 68 68 63 69 70 65 65 50 64 70 92 99 102 104 97 87 77 75 71 71 72 74 82 88 94 94 91 90 89 86 86 83 80 78
66 74 72 67 66 69 54 58 63 57 62 56 51 62 65 80 67 49 47 66 81 93 105 106 101 85 76 71 68 71 73 79 85 92 93 92 91 89 87 85 79 78 76
66 70 60 65 66 75 77 76 83 73 56 62 63 44 27 57 80 73 51 53 59 70 83 103 113 109 94 75 65 68 75 79 86 88 84 84 84 87 86 83 78 75 72
79 77 83 84 79 79 70 66 73 63 40 50 77 69 43 27 12 73 88 73 65 61 47 81 99 110 111 105 83 77 78 81 89 93 90 85 89 92 87 77 71 70 71
86 76 87 96 103 101 99 96 95 91 58 5 50 72 87 142 305 11 74 82 75 65 31 55 86 105 109 105 98 84 81 81 80 97 103 98 96 96 91 80 70 66 64
106 95 89 99 108 103 107 113 102 103 99 14 4 39 76 107 115 17 350 32 89 93 25 56 59 75 97 102 105 104 95 83 74 92 106 100 94 90 92 85 70 64 61
134 135 125 114 109 113 115 98 91 90 111 138 65 32 25 19 51 128 227 315 351 308 131 76 89 91 97 100 100 103 107 105 98 88 96 96 91 79 75 74 68 63 60
169 159 137 135 121 112 118 130 131 134 158 132 128 135 138 128 299 103 196 227 226 252 200 96 90 108 110 110 103 105 109 116 119 105 91 81 74 65 55 49 53 54 39
171 164 143 147 130 133 154 155 152 166 173 159 176 192 134 117 131 92 109 195 109 242 160 149 151 138 124 117 118 125 121 124 133 130 114 91 65 55 33 15 6 15 18
178 155 149 156 150 143 140 118 107 185 151 159 156 132 115 74 52 74 123 111 22 331 327 234 188 143 134 140 150 159 148 158 161 155 153 145 119 83 30 4 350 349 358
175 161 171 175 165 159 159 140 143 139 83 101 132 124 136 160 170 62 104 142 148 195 270 239 114 183 138 141 169 170 163 176 173 182 190 197 204 214 283 11 4 359 10
183 172 184 179 170 165 163 141 144 148 123 99 101 110 115 174 157 139 141 50 107 158 223 263 225 188 158 161 185 179 179 188 185 193 198 204 207 211 219 254 289 304 328
188 179 186 184 173 167 166 161 161 161 160 165 145 132 156 115 93 105 78 90 21 143 208 280 270 173 153 180 170 191 188 179 187 196 199 201 206 214 222 240 249 257 231
190 186 176 177 170 169 170 164 170 163 169 183 187 164 178 130 82 66 122 169 202 188 163 240 289 316 195 185 176 212 208 202 190 202 201 202 208 215 224 232 235 236 221
192 181 164 170 172 168 160 163 170 166 171 186 197 187 186 165 175 176 150 147 223 205 142 191 272 284 264 214 177 232 234 216 211 207 205 208 212 217 223 229 233 227 217
177 176 165 177 170 161 145 146 146 149 168 184 205 195 182 173 164 178 190 196 193 158 153 166 236 259 255 249 188 220 250 245 239 217 212 207 214 221 224 229 232 221 215
167 161 158 173 171 148 134 121 129 134 146 190 232 208 188 177 162 164 184 211 201 178 173 189 224 243 259 248 234 232 227 242 251 224 199 204 200 207 215 228 227 219 217
175 151 148 124 120 115 115 117 125 135 173 200 238 230 222 209 180 181 196 199 194 195 207 203 222 227 238 244 237 232 213 218 272 274 171 242 196 212 207 213 214 210 211
183 161 160 149 141 128 117 112 122 169 219 242 251 240 269 239 188 183 213 226 233 233 218 211 206 235 241 255 244 235 225 217 229 231 153 258 246 235 224 226 211 208 209
177 167 171 162 158 174 183 207 221 212 234 242 240 237 239 235 220 168 200 238 253 252 236 222 210 223 238 245 223 244 237 235 244 217 137 242 252 248 255 227 209 206 208
174 168 176 177 176 186 191 191 201 225 243 243 233 218 182 204 206 137 180 239 256 272 259 231 218 220 227 234 229 342 294 209 242 255 215 202 253 261 260 233 204 202 204
177 164 167 169 170 167 189 195 214 228 262 272 249 197 343 303 294 226 222 226 238 249 251 257 250 245 230 225 221 202 207 215 219 251 254 193 249 327 290 250 186 196 204
Height
1523 1523 1524 1524 1524 1525 1525 1525 1526 1526 1527 1527 1527 1527 1528 1528 1528 1528 1528 1528 1528 1528 1529 1529 1529 1529 1530 1530 1531 1531 1531 1532 1533 1533 1533 1534 1534 1534 1534 1535 1535 1535 1536
1524 1524 1524 1525 1525 1525 1526 1526 1526 1527 1527 1527 1528 1528 1529 1529 1529 1529 1529 1529 1530 1529 1529 1529 1530 1530 1530 1530 1531 1531 1531 1532 1532 1533 1533 1533 1534 1534 1534 1534 1535 1535 1535
1524 1525 1525 1525 1526 1526 1526 1527 1527 1527 1528 1528 1528 1529 1529 1530 1530 1530 1530 1530 1530 1530 1530 1530 1530 1530 1530 1530 1531 1531 1531 1531 1532 1532 1533 1533 1533 1534 1534 1534 1535 1535 1535
1525 1525 1525 1526 1526 1526 1527 1527 1527 1528 1528 1528 1529 1529 1530 1530 1530 1530 1530 1530 1530 1530 1530 1530 1530 1530 1530 1530 1530 1530 1531 1531 1531 1532 1532 1533 1533 1534 1534 1534 1535 1535 1535
1525 1525 1525 1526 1526 1526 1527 1527 1528 1528 1528 1529 1529 1530 1530 1530 1531 1531 1530 1530 1530 1530 1530 1530 1530 1530 1530 1530 1530 1530 1530 1531 1531 1532 1532 1532 1533 1533 1534 1534 1534 1535 1535
1525 1525 1525 1526 1526 1526 1527 1527 1527 1528 1528 1529 1529 1530 1530 1530 1531 1531 1531 1530 1530 1530 1530 1530 1530 1530 1530 1530 1530 1530 1530 1530 1531 1531 1532 1532 1532 1533 1533 1534 1534 1534 1534
1525 1525 1525 1525 1526 1526 1526 1527 1527 1528 1528 1529 1529 1529 1530 1530 1531 1531 1531 1531 1531 1531 1530 1530 1530 1530 1530 1530 1530 1530 1530 1530 1530 1531 1531 1532 1532 1532 1533 1533 1533 1533 1534
1524 1524 1525 1525 1525 1526 1526 1526 1527 1527 1528 1528 1529 1529 1530 1531 1531 1531 1531 1531 1531 1531 1531 1530 1530 1530 1529 1529 1529 1529 1530 1530 1530 1531 1531 1531 1532 1532 1532 1532 1533 1533 1533
1524 1524 1525 1525 1525 1525 1526 1526 1526 1527 1527 1528 1529 1530 1530 1530 1530 1531 1530 1530 1530 1530 1530 1530 1530 1530 1529 1529 1529 1529 1529 1529 1530 1530 1530 1531 1531 1531 1532 1532 1532 1532 1532
1523 1524 1524 1524 1525 1525 1525 1526 1526 1526 1527 1527 1528 1529 1530 1529 1530 1530 1531 1530 1530 1530 1530 1530 1530 1529 1529 1528 1528 1528 1528 1529 1529 1529 1530 1530 1530 1531 1531 1531 1531 1531 1531
1522 1523 1523 1523 1524 1524 1524 1525 1525 1526 1526 1527 1527 1528 1528 1528 1529 1529 1529 1530 1530 1529 1529 1529 1529 1528 1528 1528 1527 1527 1528 1528 1528 1528 1529 1529 1529 1529 1530 1530 1530 1530 1530
1521 1521 1522 1522 1523 1523 1523 1524 1524 1525 1525 1526 1526 1527 1527 1527 1528 1528 1528 1528 1528 1529 1528 1528 1528 1527 1527 1527 1527 1527 1527 1527 1527 1527 1527 1528 1528 1528 1529 1529 1529 1529 1529
1519 1520 1520 1521 1521 1522 1522 1522 1523 1524 1524 1525 1525 1526 1526 1526 1527 1527 1527 1527 1527 1528 1527 1527 1527 1527 1527 1526 1526 1526 1526 1526 1526 1526 1526 1527 1527 1527 1527 1527 1527 1527 1527
1517 1518 1518 1519 1519 1520 1521 1521 1522 1522 1523 1523 1524 1524 1525 1525 1525 1526 1526 1526 1526 1526 1526 1526 1526 1526 1526 1525 1525 1525 1525 1525 1524 1524 1525 1525 1526 1526 1526 1526 1526 1526 1526
1515 1516 1516 1517 1518 1518 1519 1519 1520 1521 1521 1522 1522 1523 1523 1523 1524 1524 1524 1525 1525 1524 1524 1525 1525 1525 1525 1524 1524 1524 1524 1523 1523 1523 1523 1524 1524 1524 1524 1524 1524 1524 1524
1512 1513 1514 1515 1516 1516 1517 1517 1518 1519 1519 1520 1521 1521 1521 1522 1522 1522 1523 1523 1523 1523 1523 1523 1523 1523 1523 1523 1523 1523 1523 1522 1522 1522 1522 1522 1522 1522 1522 1522 1522 1522 1522
1509 1510 1511 1512 1513 1514 1515 1515 1516 1517 1517 1518 1519 1519 1519 1520 1520 1521 1521 1521 1521 1521 1521 1521 1521 1522 1522 1522 1522 1522 1521 1521 1521 1521 1521 1521 1521 1521 1521 1521 1521 1521 1521
1506 1507 1508 1509 1510 1511 1512 1513 1514 1515 1515 1516 1516 1517 1517 1518 1518 1519 1519 1519 1519 1519 1520 1519 1519 1520 1520 1520 1520 1520 1520 1519 1519 1519 1519 1519 1519 1519 1519 1519 1519 1519 1519
1504 1504 1506 1507 1508 1508 1509 1510 1511 1512 1513 1513 1514 1515 1515 1516 1516 1516 1516 1516 1517 1517 1517 1517 1517 1518 1518 1518 1518 1518 1518 1517 1517 1517 1517 1517 1517 1517 1517 1517 1517 1517 1517
1500 1502 1503 1504 1505 1506 1507 1508 1509 1510 1510 1511 1512 1512 1513 1513 1514 1514 1514 1514 1514 1515 1515 1515 1515 1515 1516 1516 1516 1515 1515 1515 1515 1515 1515 1515 1515 1515 1515 1515 1515 1515 1515
1499 1499 1500 1501 1502 1503 1504 1505 1506 1507 1508 1509 1509 1510 1510 1510 1511 1511 1512 1512 1512 1512 1512 1512 1512 1513 1513 1513 1513 1513 1513 1513 1513 1513 1513 1513 1513 1513 1513 1513 1513 1513 1513
1495 1496 1498 1499 1500 1501 1502 1503 1504 1505 1505 1506 1506 1507 1507 1508 1508 1508 1509 1509 1509 1509 1509 1510 1510 1510 1510 1510 1510 1510 1510 1511 1510 1511 1511 1511 1511 1511 1511 1511 1511 1511 1511
1493 1494 1495 1496 1497 1498 1500 1501 1501 1502 1503 1503 1503 1504 1504 1505 1505 1505 1506 1506 1506 1506 1507 1507 1507 1507 1507 1507 1507 1507 1507 1508 1508 1508 1508 1508 1508 1508 1509 1509 1509 1509 1509
1489 1491 1492 1493 1494 1496 1497 1498 1499 1499 1500 1500 1500 1501 1501 1501 1501 1502 1502 1502 1502 1503 1503 1503 1504 1504 1504 1505 1505 1505 1505 1505 1505 1506 1506 1505 1505 1505 1506 1506 1506 1506 1506
1487 1488 1490 1491 1492 1493 1495 1495 1496 1496 1497 1497 1497 1498 1498 1498 1498 1499 1499 1499 1499 1499 1500 1500 1500 1501 1501 1501 1501 1502 1502 1502 1501 1502 1502 1502 1502 1502 1502 1502 1503 1503 1503
1484 1486 1487 1489 1490 1490 1492 1492 1493 1493 1493 1494 1494 1494 1495 1495 1495 1495 1495 1495 1495 1495 1496 1496 1496 1497 1497 1497 1498 1498 1498 1498 1498 1498 1499 1499 1499 1499 1499 1499 1499 1500 1500